Location: Peterborough
(44.3091°N, 78.3197°W)
Time: 04:07:11
(UTC-05:00)

Explorer 11/Cluster Stage 4 - Pass Details

Date: 04 October 2023
Orbit: 465 x 1228 km, 28.8° (Epoch: 30 November)

Event Time Altitude Azimuth Distance (km) Brightness Sun altitude
Rises 21:48:31 0° 249° (WSW) 3,601 10.5 -32.0°
Reaches altitude 10° 21:51:56 10° 231° (SW) 2,796 9.6 -32.5°
Enters shadow 21:54:27 16° 210° (SSW) 2,458 9.1 -32.9°
